Location: Newark
(34.9500°N, 139.9667°E)
Time: 23:14:48
(UTC+00:00)

Transit 4A - Pass Details

Date: 12 December 2019
Orbit: 872 x 973 km, 66.8° (Epoch: 28 January)

Event Time Altitude Azimuth Distance (km) Brightness Sun altitude
Rises 08:16:32 0° 245° (WSW) 3,608 13.4 -9.7°
Reaches altitude 10° 08:19:45 10° 261° (W) 2,649 11.8 -10.3°
Maximum altitude 08:24:18 21° 309° (NW) 1,945 10.0 -11.2°
Drops below altitude 10° 08:28:48 10° 357° (N) 2,604 10.1 -12.0°
Sets 08:31:58 0° 14° (NNE) 3,530 10.6 -12.6°
